Weather History for EHGG - August, 2014

Change the Weather History Date:

Sunday, August 10, 2014

  Actual Average Record
Temperature  
Mean Temperature 66 °F -  
Max Temperature 77 °F 68 °F 89 °F (1997)
Min Temperature 56 °F 50 °F 45 °F (2012)
Cooling Degree Days 2    
Growing Degree Days 16 (Base 50)    
Moisture  
Dew Point 59 °F    
Average Humidity 80    
Maximum Humidity 100    
Minimum Humidity 51    
Precipitation  
Precipitation 0.31 in 0.09 in - ()
Sea Level Pressure  
Sea Level Pressure 29.67 in    
Wind  
Wind Speed 6 mph ()    
Max Wind Speed 16 mph    
Max Gust Speed -    
Visibility 8.5 miles    
Events Rain    
Averages and records for this station are not official NWS values.
T = Trace of Precipitation, MM = Missing Value Source: Averaged Metar Reports

Daily Weather History Graph

Daily Weather History Graph

Search for Another Location

Airport or City:

Trip Planner

Search our weather history database for the weather conditions in past years. The results will help you decide how hot, cold, wet, or windy it might be!

Date:

Astronomy

Aug. 10, 2014 Rise Set
Actual Time 6:05 AM CEST 9:11 PM CEST
Civil Twilight 5:24 AM CEST 9:51 PM CEST
Nautical Twilight 4:30 AM CEST 10:45 PM CEST
Astronomical Twilight 3:18 AM CEST 11:55 PM CEST
Moon 8:36 PM CEST (8/10) 5:43 AM CEST (8/10)
Length of Visible Light 16h 27m
Length of Day
15h 05m
Full, 100% of the Moon is Illuminated
Aug 10
Full
Aug 10
Full
Aug 17
Last Quarter
Aug 25
New
Sep 2
First Quarter

Hourly Weather History & Observations

Time (CEST) Temp. Dew Point Humidity Pressure Visibility Wind Dir Wind Speed Gust Speed Precip Events Conditions
12:00 AM 59 °F 57 °F 89% 29.89 in 18 mi SE 2.2 mph - -   Partly Cloudy
12:25 AM 59.0 °F 55.4 °F 88% 29.89 in 6.2 mi Variable 2.3 mph - N/A   Overcast
12:55 AM 59.0 °F 55.4 °F 88% 29.89 in 6.2 mi Variable 2.3 mph - N/A   Partly Cloudy
1:00 AM 59 °F 56 °F 87% 29.89 in 17 mi SE 2.2 mph - -   Overcast
1:25 AM 59.0 °F 55.4 °F 88% 29.86 in 6.2 mi East 1.2 mph - N/A   Unknown
1:55 AM 59.0 °F 55.4 °F 88% 29.86 in 6.2 mi Variable 1.2 mph - N/A   Unknown
2:00 AM 58 °F 55 °F 86% 29.87 in 18 mi ESE 4.5 mph - -   Partly Cloudy
2:25 AM 59.0 °F 55.4 °F 88% 29.86 in 6.2 mi ESE 5.8 mph - N/A   Unknown
2:55 AM 59.0 °F 53.6 °F 82% 29.86 in 6.2 mi ESE 4.6 mph - N/A   Unknown
3:00 AM 59 °F 54 °F 79% 29.86 in 15 mi ESE 4.5 mph - -   Mostly Cloudy
3:25 AM 57.2 °F 53.6 °F 88% 29.83 in 6.2 mi ESE 4.6 mph - N/A   Unknown
3:55 AM 59.0 °F 53.6 °F 82% 29.83 in 6.2 mi ESE 5.8 mph - N/A   Unknown
4:00 AM 60 °F 54 °F 75% 29.84 in 17 mi ESE 4.5 mph - -   Overcast
4:25 AM 59.0 °F 55.4 °F 88% 29.83 in 6.2 mi ESE 5.8 mph - N/A   Unknown
4:55 AM 59.0 °F 55.4 °F 88% 29.83 in 6.2 mi ESE 4.6 mph - N/A   Unknown
5:00 AM 59 °F 55 °F 84% 29.83 in 14 mi ESE 4.5 mph - -   Overcast
5:25 AM 59.0 °F 55.4 °F 88% 29.80 in 6.2 mi ESE 4.6 mph - N/A   Unknown
5:55 AM 59.0 °F 55.4 °F 88% 29.80 in 6.2 mi ESE 4.6 mph - N/A   Unknown
6:00 AM 59 °F 56 °F 85% 29.81 in 12 mi ESE 4.5 mph - -   Overcast
6:25 AM 59.0 °F 55.4 °F 88% 29.80 in 6.2 mi ESE 4.6 mph - N/A   Unknown
6:55 AM 59.0 °F 55.4 °F 88% 29.80 in 6.2 mi ESE 5.8 mph - N/A   Unknown
7:00 AM 59 °F 56 °F 85% 29.81 in 10 mi ESE 4.5 mph - -   Mostly Cloudy
7:25 AM 60.8 °F 55.4 °F 82% 29.80 in 6.2 mi ESE 6.9 mph - N/A   Unknown
7:55 AM 62.6 °F 57.2 °F 82% 29.77 in 6.2 mi ESE 5.8 mph - N/A   Unknown
8:00 AM 62 °F 57 °F 79% 29.79 in 12 mi East 6.7 mph - -   Partly Cloudy
8:25 AM 60.8 °F 57.2 °F 88% 29.77 in 6.2 mi East 6.9 mph - N/A   Unknown
8:55 AM 62.6 °F 57.2 °F 82% 29.74 in 6.2 mi ESE 8.1 mph - N/A   Unknown
9:00 AM 64 °F 56 °F 70% 29.75 in 16 mi ESE 6.7 mph - -   Overcast
9:25 AM 64.4 °F 57.2 °F 77% 29.71 in 6.2 mi ESE 9.2 mph - N/A   Unknown
9:55 AM 66.2 °F 57.2 °F 73% 29.71 in 6.2 mi ESE 9.2 mph - N/A   Unknown
10:00 AM 66 °F 58 °F 68% 29.73 in 19 mi SE 8.9 mph - -   Overcast
10:25 AM 66.2 °F 57.2 °F 73% 29.71 in 6.2 mi SE 6.9 mph - N/A   Unknown
10:55 AM 68.0 °F 57.2 °F 68% 29.71 in 6.2 mi SE 8.1 mph - N/A   Unknown
11:00 AM 68 °F 58 °F 62% 29.71 in 19 mi SE 8.9 mph - -   Overcast
11:25 AM 68.0 °F 59.0 °F 73% 29.68 in 6.2 mi SE 8.1 mph - N/A   Unknown
11:55 AM 69.8 °F 59.0 °F 68% 29.68 in 6.2 mi SE 6.9 mph - N/A   Unknown
12:00 PM 70 °F 59 °F 61% 29.68 in 22 mi SE 8.9 mph - -   Overcast
12:25 PM 71.6 °F 60.8 °F 69% 29.65 in 6.2 mi SSE 9.2 mph - N/A   Unknown
12:55 PM 73.4 °F 60.8 °F 65% 29.65 in 6.2 mi SSE 11.5 mph - N/A   Unknown
1:00 PM 74 °F 60 °F 52% 29.65 in 19 mi SSE 11.2 mph - -   Scattered Clouds
1:25 PM 73.4 °F 60.8 °F 65% 29.62 in 6.2 mi SE 9.2 mph - N/A   Unknown
1:55 PM 75.2 °F 60.8 °F 61% 29.62 in 6.2 mi SSE 10.4 mph - N/A   Unknown
2:00 PM 74 °F 60 °F 53% 29.62 in 22 mi SSE 13.4 mph - -   Partly Cloudy
2:25 PM 75.2 °F 60.8 °F 61% 29.59 in 6.2 mi SSE 12.7 mph - N/A   Unknown
2:55 PM 77.0 °F 62.6 °F 61% 29.59 in 6.2 mi SSE 10.4 mph - N/A   Unknown
3:00 PM 77 °F 62 °F 51% 29.58 in 19 mi SSE 11.2 mph - -   Overcast
3:25 PM 77.0 °F 60.8 °F 57% 29.56 in 6.2 mi SSE 12.7 mph - N/A   Scattered Clouds
3:55 PM 75.2 °F 60.8 °F 61% 29.53 in 6.2 mi SSE 12.7 mph - N/A   Partly Cloudy
4:00 PM 75 °F 62 °F 54% 29.56 in 19 mi SSE 11.2 mph - -   Scattered Clouds
4:25 PM 75.2 °F 62.6 °F 65% 29.53 in 6.2 mi SSE 12.7 mph - N/A Rain Light Rain
4:55 PM 68.0 °F 64.4 °F 88% 29.56 in 5.6 mi South 12.7 mph - N/A Rain Rain
5:00 PM 67 °F 64 °F 87% 29.56 in 5 mi South 11.2 mph - - Rain Rain Showers
5:25 PM 66.2 °F 64.4 °F 94% 29.53 in 4.3 mi South 11.5 mph - N/A Rain Rain Showers
5:55 PM 66.2 °F 66.2 °F 100% 29.50 in 6.2 mi South 6.9 mph - N/A Rain Light Rain Showers
6:00 PM 67 °F 65 °F 92% 29.53 in 7 mi South 8.9 mph - - Rain Light Rain
6:25 PM 66.2 °F 64.4 °F 94% 29.50 in 6.2 mi South 9.2 mph - N/A   Mostly Cloudy
6:55 PM 68.0 °F 64.4 °F 88% 29.50 in 6.2 mi South 8.1 mph - N/A   Partly Cloudy
7:00 PM 68 °F 65 °F 86% 29.51 in 22 mi South 11.2 mph - - Rain Rain
7:25 PM 68.0 °F 64.4 °F 88% 29.47 in 6.2 mi South 11.5 mph - N/A Rain Light Rain
7:55 PM 68.0 °F 66.2 °F 94% 29.47 in 6.2 mi South 13.8 mph - N/A Rain Light Rain Showers
8:00 PM 67 °F 65 °F 92% 29.45 in 9 mi SSE 13.4 mph - - Rain Light Rain Showers
8:25 PM 68.0 °F 64.4 °F 88% 29.44 in 6.2 mi South 15.0 mph - N/A   Mostly Cloudy
8:55 PM 66.2 °F 64.4 °F 94% 29.47 in 6.2 mi South 13.8 mph - N/A   Unknown
9:00 PM 67 °F 64 °F 85% 29.48 in 25 mi South 13.4 mph - - Rain Rain
9:25 PM 66.2 °F 62.6 °F 88% 29.47 in 6.2 mi South 15.0 mph - N/A   Partly Cloudy
9:55 PM 66.2 °F 60.8 °F 83% 29.50 in 6.2 mi SSW 16.1 mph - N/A   Mostly Cloudy
10:00 PM 65 °F 61 °F 84% 29.52 in 28 mi SSW 15.7 mph - -   Partly Cloudy
10:25 PM 64.4 °F 60.8 °F 88% 29.50 in 6.2 mi SSW 13.8 mph - N/A   Mostly Cloudy
10:55 PM 64.4 °F 60.8 °F 88% 29.53 in 6.2 mi SSW 12.7 mph - N/A   Mostly Cloudy
11:00 PM 64 °F 61 °F 87% 29.55 in 22 mi SSW 13.4 mph - -   Partly Cloudy
11:25 PM 64.4 °F 60.8 °F 88% 29.53 in 6.2 mi SSW 12.7 mph - N/A   Mostly Cloudy
11:55 PM 62.6 °F 57.2 °F 82% 29.56 in 6.2 mi WSW 12.7 mph - N/A   Unknown